EW9551 Weather Reports


Display with metric or nautical units.
time (UTC)temp
F
wind
direction
speed
MPH
gust
MPH
rain 1hr
in
rain 24hr
in
rain mn
in
humidity
%
barometer
mb
20260504010504 56 185 0.0 0.0 0.00 0.00 0.00 69 973.3
20260504003504 56 0 0.0 1.0 0.00 0.00 0.00 67 973.4
20260504000508 56 0 0.0 2.0 0.00 0.00 0.00 68 973.7
20260503233503 56 0 0.0 9.0 0.00 0.00 0.00 67 973.9
20260503230503 57 0 0.0 9.0 0.00 0.00 0.00 66 974.0
20260503223504 57 0 0.0 9.0 0.00 0.00 0.00 65 974.1
20260503220504 57 0 0.0 13.0 0.00 0.00 0.00 65 974.0
20260503214847 58 0 0.0 10.0 0.00 0.00 0.00 66 974.2
20260503210502 57 0 0.0 13.0 0.00 0.00 0.00 66 974.2
20260503203505 57 0 0.0 4.0 0.00 0.00 0.00 65 974.3
20260503200503 57 0 0.0 4.0 0.00 0.00 0.00 65 974.1
20260503193503 58 0 0.0 0.0 0.00 0.00 0.00 63 973.8
20260503190502 60 0 0.0 4.0 0.00 0.00 0.00 61 973.7
20260503183503 62 0 0.0 1.0 0.00 0.00 0.00 60 973.5
20260503183228 63 0 0.0 6.0 0.00 0.00 0.00 58 973.6
20260503174854 63 183 0.0 10.0 0.00 0.00 0.00 57 973.5
20260503170517 64 0 0.0 11.0 0.00 0.00 0.00 56 973.8
20260503150500 62 0 0.0 12.0 0.00 0.00 0.00 61 974.7
20260503130456 60 0 0.0 14.0 0.00 0.00 0.00 58 976.2
20260503110454 62 0 1.0 11.0 0.00 0.00 0.00 60 976.1
20260503090442 62 0 1.0 15.0 0.00 0.00 0.00 62 975.8
20260503080439 61 0 1.0 17.0 0.00 0.00 0.00 68 975.2
20260503070441 59 0 2.0 18.0 0.00 0.00 0.00 66 974.8
20260503053440 55 0 1.0 15.0 0.00 0.00 0.00 68 975.0
20260503050438 55 0 0.0 10.0 0.00 0.00 0.00 68 974.9
20260503043437 55 0 0.0 6.0 0.00 0.00 0.00 67 975.2
20260503040434 55 0 0.0 11.0 0.00 0.00 0.00 67 975.4
20260503033433 55 0 1.0 11.0 0.00 0.00 0.00 65 975.5
20260503030433 56 0 1.0 13.0 0.00 0.00 0.00 64 975.5
20260503023435 56 0 1.0 11.0 0.00 0.00 0.00 63 975.5
20260503020435 56 0 1.0 11.0 0.00 0.00 0.00 63 975.8
20260503013433 56 0 1.0 12.0 0.00 0.00 0.00 62 976.2
20260503013206 57 0 0.0 10.0 0.00 0.00 0.00 60 976.4